Погода в Вараше

Украина / Ровненская область     51°20′53″N   25°50′57″E
темп.,
°C
ветер,
м/с
пор.,
м/с
влажн.,
%
обл.,
%
осадки,
мм/ч
давл.,
гПа
погр.,
м
27 ноября, сб
сб2723:00+5юв61481100 0.0 996698
02:00+6ююв51290100 0.9 992770
05:00+5ююз4790100 0.4 991296
08:00+6юз61285100 0.8 991851
11:00+4зюз81275100 0.0 994923
14:00+3зюз81175100 0.0 9971007
17:00+4зюз5107248 0.0 999854
20:00+1юз35855 0.0 1000104
28 ноября, вс
вс2823:000юз2290100 0.0 100230
02:000ю3391100 0.0 100246
05:00+3ю2482100 0.0 1001100
08:00+3ююв2585100 0.2 1001124
11:00+5ююв2797100 2.3 1001197
14:00+5вюв3797100 6.4 999198
17:00+5юв3796100 1.2 998267
20:00+5ююв2590100 1.3 998119
29 ноября, пн
пн2923:00+4юв3691100 0.0 99694
02:00+4юв4989100 0.0 994143
05:00+4юв31087100 0.0 991191
08:00+5юв3592100 0.0 989113
11:00+5з61093100 2.0 989519
14:00+2з91479100 2.6 991896
17:00+1з81582100 0.1 9921130
20:00+1зюз81692100 0.1 9931244
30 ноября, вт
вт3023:00+1з101782100 0.2 9941335
02:00+1з111781100 0.3 9951290
05:00+1з111880100 0.2 9961061
08:00+1з101679100 0.2 9991183
11:00+1з8137389 0.1 10021172
14:00+1з8126869 0.1 10021162
17:00−1з6127671 0.0 1003713
20:00−1зюз61280100 0.0 1003660
1 декабря, ср
ср123:00−1юз51285100 0.0 1002637
02:00−1юз51294100 0.2 1000681
05:000юз51296100 1.3 999717
08:00+1з51097100 1.7 1000703
11:00+1з4997100 0.2 1002647
14:00+1зюз4998100 0.4 1003367
17:00+1зюз51198100 0.2 1003606
20:000ююз51094100 0.2 1002275